TimeCST,TemperatureF,Dew PointF,Humidity,Sea Level PressureIn,VisibilityMPH,Wind Direction,Wind SpeedMPH,Gust SpeedMPH,PrecipitationIn,Events,Conditions,WindDirDegrees,DateUTC
12:15 AM,41.0,41.0,100,29.99,1.5,South,3.5,-,N/A,,Overcast,180,2014-01-10 06:15:00
12:35 AM,41.0,41.0,100,29.98,1.2,South,8.1,-,N/A,,Overcast,170,2014-01-10 06:35:00
12:55 AM,41.0,41.0,100,29.97,1.5,South,6.9,-,N/A,,Overcast,170,2014-01-10 06:55:00
1:15 AM,41.0,41.0,100,29.94,2.0,SSE,6.9,-,N/A,,Overcast,160,2014-01-10 07:15:00
1:35 AM,41.0,41.0,100,29.93,2.0,SSE,8.1,-,N/A,,Overcast,160,2014-01-10 07:35:00
1:55 AM,41.0,41.0,100,29.92,2.5,SSE,6.9,-,N/A,,Light Drizzle,160,2014-01-10 07:55:00
2:15 AM,41.0,41.0,100,29.93,1.2,South,6.9,-,N/A,,Overcast,180,2014-01-10 08:15:00
2:35 AM,41.0,41.0,100,29.91,1.0,South,9.2,-,N/A,,Overcast,170,2014-01-10 08:35:00
2:55 AM,41.0,41.0,100,29.90,1.0,South,8.1,-,N/A,,Overcast,170,2014-01-10 08:55:00
3:15 AM,41.0,41.0,100,29.89,0.8,SSE,6.9,-,N/A,,Overcast,160,2014-01-10 09:15:00
3:35 AM,41.0,41.0,100,29.88,0.5,South,6.9,-,N/A,Fog,Fog,170,2014-01-10 09:35:00
3:55 AM,41.0,41.0,100,29.87,0.5,South,9.2,-,N/A,Rain,Light Rain,170,2014-01-10 09:55:00
4:15 AM,42.8,42.8,100,29.86,0.5,SSE,10.4,-,N/A,Fog,Fog,160,2014-01-10 10:15:00
4:35 AM,42.8,42.8,100,29.85,0.5,South,8.1,-,N/A,Fog,Fog,170,2014-01-10 10:35:00
4:55 AM,42.8,42.8,100,29.84,0.5,SSE,10.4,-,N/A,Fog,Fog,160,2014-01-10 10:55:00
5:15 AM,42.8,42.8,100,29.84,0.5,South,8.1,-,N/A,Fog,Fog,170,2014-01-10 11:15:00
5:35 AM,42.8,42.8,100,29.83,0.5,SSE,8.1,-,N/A,Fog,Fog,160,2014-01-10 11:35:00
5:55 AM,42.8,42.8,100,29.82,0.5,South,8.1,-,N/A,Fog,Fog,170,2014-01-10 11:55:00
6:15 AM,42.8,42.8,100,29.79,0.5,SSE,11.5,-,N/A,Fog,Fog,160,2014-01-10 12:15:00
6:35 AM,44.6,44.6,100,29.80,0.5,South,8.1,-,N/A,Fog,Fog,180,2014-01-10 12:35:00
6:55 AM,44.6,44.6,100,29.79,0.5,South,9.2,-,N/A,Fog,Fog,180,2014-01-10 12:55:00
7:15 AM,44.6,44.6,100,29.78,0.8,South,9.2,-,N/A,,Overcast,180,2014-01-10 13:15:00
7:35 AM,44.6,44.6,100,29.75,1.0,South,9.2,-,N/A,Thunderstorm,Overcast,170,2014-01-10 13:35:00
7:55 AM,46.4,46.4,100,29.77,1.0,South,6.9,-,N/A,Thunderstorm,Overcast,180,2014-01-10 13:55:00
8:15 AM,48.2,48.2,100,29.77,0.5,South,9.2,-,N/A,Fog-Thunderstorm,Fog,170,2014-01-10 14:15:00
8:35 AM,48.2,48.2,100,29.75,0.5,South,9.2,-,N/A,Fog,Fog,180,2014-01-10 14:35:00
8:55 AM,51.8,51.8,100,29.76,7.0,South,11.5,16.1,N/A,,Overcast,190,2014-01-10 14:55:00
9:15 AM,51.8,51.8,100,29.75,10.0,South,13.8,21.9,N/A,,Overcast,190,2014-01-10 15:15:00
9:35 AM,53.6,53.6,100,29.76,7.0,South,12.7,-,N/A,,Overcast,190,2014-01-10 15:35:00
9:55 AM,53.6,53.6,100,29.76,5.0,SSW,10.4,-,N/A,,Overcast,210,2014-01-10 15:55:00
10:15 AM,53.6,53.6,100,29.76,4.0,SSW,11.5,17.3,N/A,,Overcast,200,2014-01-10 16:15:00
10:35 AM,53.6,53.6,100,29.74,4.0,SSW,11.5,16.1,N/A,,Overcast,210,2014-01-10 16:35:00
10:55 AM,55.4,55.4,100,29.74,4.0,SW,12.7,19.6,N/A,,Overcast,220,2014-01-10 16:55:00
11:15 AM,55.4,55.4,100,29.73,4.0,SW,11.5,16.1,N/A,,Overcast,220,2014-01-10 17:15:00
11:35 AM,55.4,55.4,100,29.72,5.0,SW,11.5,16.1,N/A,,Overcast,220,2014-01-10 17:35:00
11:55 AM,57.2,57.2,100,29.71,7.0,SW,11.5,16.1,N/A,,Mostly Cloudy,220,2014-01-10 17:55:00
12:15 PM,59.0,59.0,100,29.70,7.0,WSW,12.7,-,N/A,,Mostly Cloudy,240,2014-01-10 18:15:00
12:35 PM,59.0,59.0,100,29.67,10.0,SW,13.8,-,N/A,,Mostly Cloudy,230,2014-01-10 18:35:00
12:55 PM,60.8,57.2,88,29.65,10.0,SW,12.7,17.3,N/A,,Scattered Clouds,220,2014-01-10 18:55:00
1:15 PM,60.8,55.4,82,29.63,10.0,SW,13.8,-,N/A,,Scattered Clouds,220,2014-01-10 19:15:00
1:35 PM,60.8,55.4,82,29.62,10.0,SW,10.4,17.3,N/A,,Mostly Cloudy,230,2014-01-10 19:35:00
1:55 PM,60.8,55.4,82,29.62,10.0,WSW,9.2,-,N/A,,Overcast,250,2014-01-10 19:55:00
2:15 PM,60.8,53.6,77,29.62,10.0,West,13.8,-,N/A,,Overcast,270,2014-01-10 20:15:00
2:35 PM,60.8,50.0,68,29.63,10.0,WNW,15.0,20.7,N/A,,Mostly Cloudy,290,2014-01-10 20:35:00
2:55 PM,60.8,48.2,63,29.63,10.0,WNW,13.8,-,N/A,,Scattered Clouds,290,2014-01-10 20:55:00
3:15 PM,59.0,46.4,63,29.65,10.0,WNW,11.5,19.6,N/A,,Mostly Cloudy,290,2014-01-10 21:15:00
3:35 PM,60.8,44.6,55,29.66,10.0,West,11.5,-,N/A,,Scattered Clouds,260,2014-01-10 21:35:00
3:55 PM,60.8,41.0,48,29.67,10.0,WNW,13.8,-,N/A,,Clear,290,2014-01-10 21:55:00
4:15 PM,60.8,37.4,42,29.69,10.0,NW,16.1,21.9,N/A,,Clear,320,2014-01-10 22:15:00
4:35 PM,59.0,37.4,45,29.70,10.0,NW,11.5,-,N/A,,Clear,310,2014-01-10 22:35:00
4:55 PM,57.2,37.4,48,29.71,10.0,WNW,9.2,-,N/A,,Clear,300,2014-01-10 22:55:00
5:15 PM,55.4,37.4,51,29.72,10.0,NW,6.9,-,N/A,,Clear,310,2014-01-10 23:15:00
5:35 PM,53.6,37.4,54,29.73,10.0,WNW,5.8,-,N/A,,Clear,290,2014-01-10 23:35:00
5:55 PM,51.8,35.6,54,29.73,10.0,WNW,3.5,-,N/A,,Clear,290,2014-01-10 23:55:00
6:15 PM,48.2,35.6,62,29.73,10.0,West,3.5,-,N/A,,Clear,260,2014-01-11 00:15:00
6:35 PM,44.6,35.6,71,29.74,10.0,West,3.5,-,N/A,,Clear,260,2014-01-11 00:35:00
6:55 PM,44.6,33.8,66,29.75,10.0,West,3.5,-,N/A,,Clear,280,2014-01-11 00:55:00
7:15 PM,42.8,35.6,76,29.76,10.0,West,3.5,-,N/A,,Clear,270,2014-01-11 01:15:00
7:35 PM,42.8,35.6,76,29.76,10.0,West,3.5,-,N/A,,Clear,260,2014-01-11 01:35:00
7:55 PM,42.8,35.6,76,29.76,10.0,Calm,Calm,-,N/A,,Clear,0,2014-01-11 01:55:00
8:15 PM,42.8,35.6,76,29.76,10.0,Calm,Calm,-,N/A,,Clear,0,2014-01-11 02:15:00
8:35 PM,41.0,33.8,76,29.76,10.0,Calm,Calm,-,N/A,,Clear,0,2014-01-11 02:35:00
8:55 PM,41.0,35.6,81,29.76,10.0,Calm,Calm,-,N/A,,Clear,0,2014-01-11 02:55:00
9:15 PM,41.0,33.8,76,29.77,10.0,Calm,Calm,-,N/A,,Clear,0,2014-01-11 03:15:00
9:35 PM,41.0,33.8,76,29.77,10.0,Calm,Calm,-,N/A,,Clear,0,2014-01-11 03:35:00
9:55 PM,37.4,32.0,81,29.78,10.0,Calm,Calm,-,N/A,,Clear,0,2014-01-11 03:55:00
10:15 PM,37.4,32.0,81,29.78,10.0,West,3.5,-,N/A,,Clear,260,2014-01-11 04:15:00
10:35 PM,39.2,32.0,75,29.79,10.0,West,4.6,-,N/A,,Clear,270,2014-01-11 04:35:00
10:55 PM,41.0,33.8,76,29.80,10.0,West,5.8,-,N/A,,Clear,280,2014-01-11 04:55:00
11:15 PM,41.0,33.8,76,29.80,10.0,West,5.8,-,N/A,,Clear,270,2014-01-11 05:15:00
11:35 PM,41.0,32.0,70,29.81,10.0,West,5.8,-,N/A,,Clear,270,2014-01-11 05:35:00
11:55 PM,41.0,32.0,70,29.82,10.0,West,4.6,-,N/A,,Clear,280,2014-01-11 05:55:00